{"data":{"norad_id":28419,"epoch":"2026-05-25T04:45:54.466848Z","epoch_age_seconds":51671,"freshness":"FRESH","line1":"1 28419U 04037A   26145.19854707  .00000010  00000+0  11142-5 0  9991","line2":"2 28419  82.4857 340.2703 0015460 321.9351  38.0637 12.45679047985047","mean_motion":12.45679047,"eccentricity":0.001546,"inclination_deg":82.4857,"raan_deg":340.2703,"arg_perigee_deg":321.9351,"mean_anomaly_deg":38.0637,"bstar":1.1142e-6,"rev_number":98504,"period_min":115.59960035195,"perigee_km":1470.4678223473,"apogee_km":1494.7732847028,"semimajor_km":7860.757553525,"source":"CELESTRAK","updated_at":"2026-05-25T13:37:55.061602Z"}}